067  
ASUS44 KFWD 200915  
RWRFWD  
NORTH TEXAS HOURLY WEATHER ROUNDUP  
NATIONAL WEATHER SERVICE FORT WORTH TX  
300 AM CST TUE FEB 20 2018  
 
NOTE: "FAIR" INDICATES FEW OR NO CLOUDS BELOW 12,000 FEET WITH NO  
SIGNIFICANT WEATHER AND/OR S TO VISIBILITY
.  
 
TXZ118-119-201000-  
DALLAS/FORT WORTH METROPLEX  
 
CITY SKY/WX TMP DP RH WIND PRES REMARKS
 
DFW AIRPORT CLOUDY 74 66 76 S20G33 29.82R  
DALLAS LOVE CLOUDY 72 66 81 S20G28 29.85R  
FTW MEACHAM CLOUDY 73 67 81 S21G30 29.83R  
DAL-EXECUTIVE CLOUDY 71 66 84 S20G30 29.83S  
FTW-ALLIANCE LGT RAIN 71 66 84 S18G26 29.82R  
FTW-NAS-JRB LGT RAIN 71 65 81 S22G29 29.84R  
FTW-SPINKS CLOUDY 71 65 80 S18G25 29.86R  
ARLINGTON CLOUDY 70 67 90 S18G25 29.84R  
GRAND PRAIRIE FAIR 71 64 78 S14G25 29.85R  
ADDISON CLOUDY 71 65 81 S20G35 29.86R  
MESQUITE CLOUDY 69 65 86 SE16G23 29.86S  
LANCASTER CLOUDY 70 65 82 S16G24 29.87S  

 
 
TXZ091>094-102>105-117-120-121-131>134-201000-  
NORTH CENTRAL TEXAS  
 
CITY SKY/WX TMP DP RH WIND PRES REMARKS
 
SHRMAN/DENISON CLOUDY 69 64 84 S20 29.84R  
GAINESVILLE CLOUDY 70 64 80 S21G32 29.82S  
BOWIE CLOUDY 70 64 83 SE16G23 29.78R  
BRIDGEPORT FAIR 71 64 77 S18G31 29.79F  
DECATUR CLOUDY 70 65 83 S23G30 29.79S  
DENTON CLOUDY 71 66 84 S24G32 29.82S  
MCKINNEY CLOUDY 69 66 90 S17G26 29.84S  
BONHAM CLOUDY 69 64 82 S20G28 29.85S  
GREENVILLE CLOUDY 72 64 78 S17G23 29.88R  
ROCKWALL CLOUDY 70 66 87 S16G26 29.86S  
TERRELL CLOUDY 70 64 81 S20G26 29.88S  
WAXAHACHIE CLOUDY 70 66 88 SE18 29.88R  
CLEBURNE CLOUDY 68 68 100 S16 29.88R FOG  
GRANBURY CLOUDY 71 66 85 SE10 29.85R  

 
 
TXZ083>090-098>101-113>116-127>130-139>142-154-155-201000-  
WESTERN NORTH TEXAS  
 
CITY SKY/WX TMP DP RH WIND PRES REMARKS
 
WICHITA FALLS NOT AVBL  
WF-KICKAPOO FAIR 70 64 80 S14 29.75S  
VERNON FAIR 67 60 77 S12 29.71S  
ABILENE FAIR 68 61 78 S18G29 29.76S  
ABILENE-DYESS FAIR 68 62 82 S20G28 29.75S  
GRAHAM N/A 71 64 78 SE13G18 29.73S  
BRECKENRIDGE MOCLDY 72 64 75 S12G22 29.75R  
CISCO MOCLDY 68 63 83 S21G37 29.73F  
EASTLAND CLOUDY 67 64 91 SE25G38 29.75F  
RANGER LGT RAIN 66 64 91 S20G25 29.84R  
MINERAL WELLS LGT RAIN 70 65 84 S20G35 29.79R  
STEPHENVILLE CLOUDY 64 60 86 S3G21 29.88R VSB 1/2  
COMANCHE TSTM 63 63 100 S14G24 29.87R  
BROWNWOOD CLOUDY 63 59 88 SE12 29.81F  
COLEMAN FAIR 65 55 68 S15 29.80R  

 
 
TXZ143>147-156>162-174-175-201000-  
CENTRAL TEXAS  
 
CITY SKY/WX TMP DP RH WIND PRES REMARKS
 
WACO CLOUDY 72 64 76 S21G29 29.86S  
WACO-MCGREGOR CLOUDY 71 66 84 S17G29 29.86S  
HILLSBORO RAIN 70 68 92 SE16 29.86S  
CORSICANA CLOUDY 72 64 76 S22G31 29.90S  
MEXIA CLOUDY 70 64 80 S18G30 29.89S  
HEARNE CLOUDY 70 66 86 SE10G20 29.91S  
CAMERON MOCLDY 72 65 78 S16G25 29.89S  
TEMPLE CLOUDY 71 66 84 S21G30 29.87R  
KILLEEN CLOUDY 71 64 81 S21 29.85S  
KILLEEN-SKYLRK CLOUDY 71 66 84 S22G28 29.87S  
FORT HOOD CLOUDY 70 64 82 S21G28 29.81F  
GATESVILLE CLOUDY 72 64 78 S14 29.88R  
HAMILTON TSTM 63 59 87 SW31G49 29.95R  
LAMPASAS CLOUDY 71 63 74 SW7G17 29.88R  

 
 
TXZ095>097-106>112-122>126-135>138-148>153-164>167-201000-  
EAST TEXAS  
 
CITY SKY/WX TMP DP RH WIND PRES REMARKS
 
PARIS CLOUDY 70 64 83 S20 29.88S  
SULPHUR SPRNGS CLOUDY 72 64 77 S15G22 29.91S  
MOUNT PLEASANT FAIR 70 66 88 S12 29.94R  
GILMER CLOUDY 71 64 81 S10G22 29.94R  
MINEOLA CLOUDY 72 63 73 S16G24 29.91S  
TYLER CLOUDY 72 63 73 S18 29.93R  
LONGVIEW CLOUDY 71 68 90 S16 29.93F  
MARSHALL CLOUDY 70 66 86 S10 29.98S  
ATHENS CLOUDY 68 61 77 S17G24 29.90S  
PALESTINE CLOUDY 71 64 78 SE13G20 29.92F  
JACKSONVILLE CLOUDY 70 65 85 S15G26 29.95F  
HENDERSON CLOUDY 71 65 83 S9G22 29.95F  
CENTER FAIR 69 64 82 SE13G20 29.98F  
NACOGDOCHES CLOUDY 71 66 84 SE13 29.97F  
LUFKIN CLOUDY 70 66 87 SE15 29.96F  

 
 
SUPPLEMENTAL OBSERVATIONS (NWS FORT WORTH AREA)  
 
CITY SKY/WX TMP DP RH WIND PRES REMARKS
 
DENISON DAM N/A 70 64 83 S14 N/A  
CADDO GRASSLND N/A 72 64 78 S17G24 N/A  
PAT MAYSE LAKE N/A 70 68 94 SE18 N/A  
GREENVILLE N/A 72 64 78 S16G26 N/A  
CEDAR HILL N/A 72 64 78 S16G28 N/A  
LBJ GRASSLAND N/A 70 64 83 SE15G30 N/A  
POSSUM KINGDOM N/A 70 63 78 SE22G31 N/A  
GRANBURY N/A 70 66 88 S12G26 N/A  
COMANCHE N/A 63 59 88 S8G28 N/A  
MCGREGOR N/A 72 64 78 S26G33 N/A  
TEMPLE N/A 72 66 83 S9G21 N/A  
LAKE LIMESTONE N/A 72 64 78 S14G25 N/A  
ATHENS N/A 72 63 73 S17G26 N/A  

 
 
SUPPLEMENTAL OBSERVATIONS (NWS NORMAN AREA)  
 
CITY SKY/WX TMP DP RH WIND PRES REMARKS
 
GOODLETT N/A 65 58 76 S20 29.68S  
ODELL N/A 67 63 89 S20 29.71S  
CROWELL N/A 67 62 86 S18 29.71S  
KNOX CITY N/A 67 60 78 S18 29.72S  
SEYMOUR N/A 69 63 81 S20G26 29.72S  
MILLERS CREEK N/A 66 61 82 S14 N/A  

 
 
SUPPLEMENTAL OBSERVATIONS (NWS SAN ANGELO AREA)  
 
CITY SKY/WX TMP DP RH WIND PRES REMARKS
 
WEINERT N/A 67 62 84 S15 29.73S  
HASKELL N/A 67 60 80 S13 29.73S  
THROCKMORTON N/A 69 64 84 S10 29.76R  
STAMFORD N/A 67 63 85 S17 29.74S  
CLYDE N/A 67 61 79 S17 29.79S  
HAMBY N/A 68 61 77 S14G23 N/A  
IVIE RESERVOIR N/A 64 55 72 S15G22 N/A  
COLORADO BEND N/A 70 64 83 S8G17 N/A  

 
 
SUPPLEMENTAL OBSERVATIONS (NWS SHREVEPORT AREA)  
 
CITY SKY/WX TMP DP RH WIND PRES REMARKS
 
CLARKSVILLE N/A 70 64 83 S16G25 N/A  
TEXARKANA N/A 70 64 83 SE5 N/A  
LINDEN N/A 72 66 83 SE7G17 N/A  
CADDO LAKE N/A 70 64 83 SE6G16 N/A  
GILMER N/A 72 64 78 S13G24 N/A  
HENDERSON N/A 72 66 83 S13G21 N/A  
LUFKIN N/A 72 66 83 MISG N/A  
N SABINE NF N/A 72 66 83 MISG N/A  
S SABINE NF N/A 70 64 83 S5 N/A  

 
 
SUPPLEMENTAL OBSERVATIONS ARE A COLLECTION OF AUTOMATED INSTRUMENTS  
THAT ARE MAINTAINED BY A VARIETY OF FEDERAL AND STATE AGENCIES.  
CERTAIN ELEMENTS...SUCH AS HUMIDITY VALUES AND SUSTAINED WIND  
SPEEDS...MAY BE APPROXIMATED.  
 
 
 
CLICK HERE TO GO TO PREVIOUS BULLETINS.

The Nexlab TX Page Main Text Page